[[{"header":{"parameterUnit":"m.s-1","parameterCategory":2,"la1":30.2991,"la2":30.254,"lo1":-89.0895,"lo2":-89.0444,"dy":0.0017,"dx":0.0017,"nx":28,"ny":28,"refTime":"2025-06-21T21:00:00:Z","depth":"0","parameterNumber":2,"parameterNumberName":"U-component_of_CURRENTS"},"data":[0,0,0,0,0,0,0,0,0,0,0,0,0,0,0,0,0,0,0,0,0,0,0,0,0,0,0,0,0,0,0,0,0,0,0,0,0,0,0,0,0,0,0,0,0,0,0,0,0,0,0,0,0,0,0,0,0,0,0.3967,0.3968,0,0.4017,0.4017,0.4018,0.3996,0.3995,0.3994,0.3994,0.398,0.398,0.3981,0,0,0,0,0,0,0,0,0,0,0,0,0,0.3848,0.385,0.3967,0.3968,0.3969,0.4017,0.4017,0.4018,0.3996,0.3995,0.3994,0.3993,0.398,0.398,0.3981,0,0,0,0,0,0,0,0,0,0,0,0,0,0.3894,0.3851,0.3967,0.3968,0.3969,0.4017,0.4017,0.4018,0.3996,0.3995,0.3994,0.3993,0.398,0.398,0.3981,0.4007,0,0,0.3983,0.3983,0,0,0,0,0,0,0,0,0.3892,0.3898,0.3967,0.3968,0.3969,0.4003,0.3971,0.4013,0.3996,0.398,0.3994,0.3992,0.3986,0.3986,0.3992,0.4006,0.4006,0.3983,0.3983,0.3983,0.3983,0,0,0,0,0,0,0,0.3889,0.3896,0.3982,0.3968,0.397,0.3965,0.3969,0.3978,0.3984,0.3982,0.3982,0.3996,0.3985,0.3991,0.3991,0.4006,0.3983,0.3983,0.3983,0.3984,0.4059,0.406,0,0,0,0,0,0,0.3895,0.3893,0.398,0.3984,0.3933,0.3968,0.3973,0.399,0.3985,0.3986,0.3996,0.3994,0.3991,0.3991,0.3991,0.4048,0.3983,0.3984,0.3984,0.4057,0.4059,0.4061,0,0,0,0,0,0,0.3892,0.3902,0.3978,0.3943,0.3953,0.3972,0.399,0.3991,0.4005,0.3998,0.3996,0.4011,0.399,0.399,0.4009,0.4046,0.3984,0.3984,0.4055,0.4057,0.406,0.4144,0,0,0,0,0,0,0.3888,0.3901,0.3918,0.3944,0.3956,0.4019,0.3992,0.3993,0.4018,0.4016,0.401,0.4007,0.3989,0.4008,0.4009,0.4045,0.3985,0.4053,0.4056,0.4059,0.4139,0.4149,0.4158,0,0,0,0,0,0.3884,0.3913,0.3918,0.3929,0.3978,0.4021,0.4026,0.4031,0.402,0.4037,0.403,0.4007,0.4029,0.401,0.4011,0.4048,0.4051,0.4055,0.4059,0.4135,0.4147,0.4158,0,0,0,0,0,0,0.3865,0.3915,0.3921,0.3962,0.3995,0.4019,0.404,0.4044,0.4054,0.4048,0.4029,0.4027,0.4062,0.4043,0.4023,0.4079,0.4037,0.4041,0.4095,0.4106,0.4115,0.4141,0.3985,0,0,0,0,0,0.3873,0.3909,0.395,0.3983,0.4002,0.4023,0.4043,0.405,0.4063,0.4067,0.4065,0.4064,0.408,0.4082,0.4091,0.4119,0.4164,0.4143,0.4152,0.416,0.4182,0.429,0.4313,0.4073,0.4073,0.4073,0,0,0.3867,0.3908,0.3922,0.3982,0.4004,0.404,0.4031,0.4069,0.4096,0.4065,0.4097,0.4102,0.4097,0.4131,0.4144,0.4117,0.4255,0.4165,0.4172,0.419,0.4297,0.4321,0.4342,0.4076,0.4075,0.4075,0,0,0.3879,0.3919,0.3949,0.3985,0.4038,0.4062,0.4078,0.4114,0.4128,0.4162,0.4154,0.4188,0.419,0.4211,0.4216,0.4285,0.4307,0.4278,0.434,0.4445,0.4467,0.4486,0.4591,0.4618,0.4275,0.4275,0.4275,0,0.3865,0.392,0.3963,0.4005,0.4039,0.4073,0.4109,0.4138,0.4174,0.421,0.4178,0.4247,0.4235,0.4308,0.4322,0.4309,0.4372,0.4297,0.4461,0.448,0.4499,0.4601,0.4631,0.428,0.4279,0.4279,0.4278,0,0.3897,0.3944,0.3969,0.4035,0.4079,0.412,0.4171,0.422,0.4241,0.4273,0.4352,0.4353,0.4402,0.4398,0.4373,0.4498,0.4504,0.4469,0.4437,0.4529,0.463,0.466,0.4286,0.4284,0.4283,0.4282,0,0,0.3845,0.3964,0.3969,0.4018,0.41,0.4144,0.4214,0.4299,0.4374,0.44,0.4503,0.4516,0.4543,0.4552,0.4547,0.4616,0.4791,0.4597,0.46,0.471,0.5044,0.4971,0.4996,0.4791,0.4796,0.48,0.507,0,0.385,0.3937,0.3993,0.4076,0.4131,0.4203,0.4273,0.4359,0.4432,0.4545,0.4583,0.4668,0.4594,0.4641,0.4703,0.4782,0.487,0.4722,0.4931,0.4938,0.4869,0.5028,0.4801,0.5016,0.5099,0.5103,0.5107,0,0.3856,0.3927,0.4005,0.4137,0.4165,0.4216,0.4372,0.4441,0.4603,0.4665,0.4766,0.4818,0.4943,0.4861,0.5052,0.4966,0.502,0.506,0.5071,0.4995,0.492,0.4933,0.5066,0.4908,0.5152,0.5149,0.5145,0,0.3827,0.3935,0.4007,0.4045,0.419,0.4248,0.4324,0.4477,0.4572,0.4768,0.4871,0.5009,0.5103,0.5201,0.5263,0.5194,0.5477,0.5392,0.5383,0.5378,0.5222,0.5194,0.523,0.5549,0.5548,0.5547,0.5547,0,0.3833,0.3893,0.4,0.4049,0.4159,0.4244,0.4381,0.4494,0.4665,0.4797,0.4931,0.5064,0.5193,0.5348,0.5382,0.5493,0.5583,0.5451,0.5462,0.5243,0.5215,0.5094,0.5027,0.5558,0.5555,0.5553,0.5552,0,0.3821,0.3882,0.3987,0.4118,0.416,0.4245,0.4408,0.4501,0.4669,0.486,0.4934,0.5168,0.5372,0.5494,0.5687,0.5643,0.5601,0.5758,0.5492,0.5465,0.5255,0.5201,0.5149,0.4992,0.5817,0.5817,0.5817,0,0.3832,0.3879,0.4025,0.4082,0.4146,0.4263,0.4336,0.4497,0.4594,0.4899,0.4982,0.5263,0.5417,0.5695,0.5713,0.583,0.5634,0.5656,0.546,0.5265,0.5216,0.5021,0.4877,0.5306,0.5302,0.5299,0.5296,0,0.3875,0.3919,0.4013,0.4098,0.4176,0.426,0.4367,0.444,0.4626,0.4789,0.4992,0.5156,0.5435,0.5471,0.5635,0.5644,0.537,0.5588,0.5463,0.4902,0.462,0.4464,0.5115,0.5266,0.5269,0.5271,0.5273,0.5274,0.3917,0.3964,0.4049,0.4115,0.4186,0.4204,0.4207,0.4319,0.4443,0.4599,0.4854,0.4994,0.5184,0.5383,0.5381,0.5201,0.519,0.5012,0.5,0.4849,0.4566,0.5155,0.5251,0.5254,0.5256,0.5259,0.526,0,0.3944,0.3973,0.4041,0.4085,0.4068,0.4126,0.4174,0.4126,0.4167,0.4392,0.4536,0.468,0.4759,0.4863,0.4821,0.4636,0.4404,0.4493,0.4152,0.4066,0.4673,0.4511,0.4354,0.4355,0.4355,0.4355,0.4355,0.4355,0.3976,0.4006,0.399,0.3933,0.3926,0.3827,0.3796,0.3776,0.3862,0.3907,0.3965,0.4114,0.4376,0.451,0.4338,0.4214,0.3867,0.3703,0.3709,0.4116,0.4161,0.4203,0.4033,0.3779,0.3779,0.2889,0.2882,0.2877]},{"header":{"parameterUnit":"m.s-1","parameterCategory":2,"la1":30.2991,"la2":30.254,"lo1":-89.0895,"lo2":-89.0444,"dy":0.0017,"dx":0.0017,"nx":28,"ny":28,"refTime":"2025-06-21T21:00:00:Z","depth":"0","parameterNumber":3,"parameterNumberName":"V-component_of_CURRENTS"},"data":[0,0,0,0,0,0,0,0,0,0,0,0,0,0,0,0,0,0,0,0,0,0,0,0,0,0,0,0,0,0,0,0,0,0,0,0,0,0,0,0,0,0,0,0,0,0,0,0,0,0,0,0,0,0,0,0,0,0,0.0098,0.0097,0,0.0038,0.0037,0.0036,-0.0012,-0.0013,-0.0013,-0.0013,-0.0103,-0.0105,-0.0107,0,0,0,0,0,0,0,0,0,0,0,0,0,0.0125,0.0125,0.0098,0.0097,0.0097,0.0038,0.0037,0.0036,-0.0012,-0.0013,-0.0013,-0.0013,-0.0102,-0.0104,-0.0107,0,0,0,0,0,0,0,0,0,0,0,0,0,0.0092,0.0125,0.0098,0.0067,0.0064,0.0038,0.0037,0.0036,-0.0012,-0.0013,-0.0013,-0.0013,-0.0101,-0.0104,-0.0107,-0.0118,0,0,-0.0117,-0.0118,0,0,0,0,0,0,0,0,0.0094,0.0091,0.0072,0.0069,0.0066,0.0022,0.0014,-0.0016,-0.0012,0.0014,-0.0013,-0.0014,-0.0062,-0.0068,-0.0081,-0.0122,-0.0126,-0.0117,-0.0119,-0.012,-0.0121,0,0,0,0,0,0,0,0.0097,0.0093,0.0072,0.0072,0.0068,0.0041,0.0036,0.0008,-0.0023,0.0012,0.0009,0.0006,-0.0064,-0.0078,-0.0084,-0.0128,-0.0117,-0.012,-0.0122,-0.0123,-0.017,-0.0169,0,0,0,0,0,0,0.0112,0.0096,0.0074,0.007,0.0082,0.0042,0.0036,0.0034,-0.0022,-0.003,0.0007,0.0004,-0.0073,-0.008,-0.0087,-0.0073,-0.012,-0.0123,-0.0125,-0.017,-0.017,-0.0169,0,0,0,0,0,0,0.0112,0.011,0.0076,0.0083,0.0077,0.0042,0.0041,0.0034,0.0024,-0.0025,-0.0035,0.0006,-0.0073,-0.0083,-0.0102,-0.0078,-0.0125,-0.0128,-0.0171,-0.017,-0.0169,-0.0064,0,0,0,0,0,0,0.0113,0.0111,0.0114,0.0084,0.0078,0.0076,0.0041,0.0033,0.0024,0.002,-0.0029,-0.0039,-0.0074,-0.0097,-0.0105,-0.0083,-0.013,-0.0172,-0.0171,-0.017,-0.0068,-0.006,-0.0052,0,0,0,0,0,0.0115,0.0133,0.0115,0.0112,0.0084,0.0078,0.0072,0.0043,0.0025,0.0031,-0.0005,-0.0037,-0.0095,-0.0099,-0.0109,-0.0087,-0.0173,-0.0171,-0.017,-0.0072,-0.0061,-0.0052,0,0,0,0,0,0,0.0151,0.0129,0.0109,0.0119,0.0103,0.0071,0.0074,0.0052,0.0027,0.0022,-0.0029,-0.004,-0.0052,-0.0084,-0.0087,-0.0098,-0.0139,-0.0139,-0.0061,-0.0052,-0.0044,-0.0004,-0.0133,0,0,0,0,0,0.016,0.0164,0.0138,0.0146,0.0141,0.0106,0.0099,0.0081,0.0056,0.0044,0.0009,-0.0028,-0.0054,-0.0064,-0.0098,-0.0099,-0.0116,-0.0093,-0.0085,-0.0077,-0.0053,-0.0058,-0.0048,-0.0164,-0.0164,-0.0164,0,0,0.0177,0.0164,0.0167,0.0153,0.0135,0.0149,0.0101,0.0101,0.0116,0.0039,0.0045,-0.0005,-0.0051,-0.0056,-0.0063,-0.0077,-0.0054,-0.0075,-0.0068,-0.0048,-0.0056,-0.0044,-0.0034,-0.0163,-0.0163,-0.0163,0,0,0.0224,0.0202,0.0225,0.0216,0.02,0.0183,0.0188,0.016,0.0152,0.0144,0.0095,0.0068,0.0023,0.0004,-0.0013,0.0021,-0.0018,0.0002,0.0086,0.008,0.009,0.0099,0.0093,0.01,0.0015,0.0015,0.0016,0,0.0246,0.0272,0.0231,0.0252,0.0263,0.0207,0.0245,0.0227,0.0197,0.0213,0.016,0.0117,0.0058,0.0082,0.0079,0.0043,0.0032,0.0055,0.0094,0.0102,0.0109,0.01,0.0107,0.0021,0.002,0.002,0.0019,0,0.0311,0.0331,0.0346,0.0355,0.0358,0.0381,0.0357,0.0361,0.0333,0.0321,0.0325,0.0243,0.0226,0.0193,0.0137,0.0169,0.0141,0.0099,0.0076,0.0128,0.0114,0.012,0.0028,0.0026,0.0025,0.0023,0,0,0.0371,0.0392,0.0399,0.0438,0.042,0.0446,0.0467,0.0496,0.0554,0.0483,0.0554,0.0455,0.0409,0.0386,0.0316,0.0297,0.0308,0.0223,0.022,0.0232,0.0302,0.0261,0.0262,0.0274,0.0276,0.0277,0.0273,0,0.0441,0.0524,0.0504,0.0592,0.064,0.0605,0.065,0.0662,0.0656,0.0706,0.0624,0.0649,0.0486,0.0494,0.0437,0.0356,0.0327,0.0314,0.0238,0.0236,0.0206,0.0269,0.0229,0.022,0.0277,0.0278,0.0279,0,0.0519,0.0571,0.0674,0.0753,0.0773,0.0815,0.0904,0.0935,0.0965,0.0964,0.0943,0.0884,0.0842,0.0701,0.0569,0.0569,0.044,0.0357,0.0355,0.0289,0.0206,0.0176,0.0227,-0.0024,0.0287,0.0286,0.0285,0,0.0622,0.0696,0.0798,0.0818,0.0886,0.0945,0.0986,0.1029,0.1105,0.1151,0.1216,0.1121,0.1121,0.0942,0.0712,0.0657,0.058,0.0486,0.033,0.0325,0.0265,0.0253,0.008,0.0403,0.0403,0.0403,0.0403,0,0.0722,0.0807,0.0866,0.0929,0.1082,0.1074,0.1236,0.1265,0.1345,0.1481,0.1365,0.1451,0.1182,0.1085,0.0829,0.0609,0.0662,0.0371,0.0333,0.0298,0.0289,0.0044,-0.0097,0.0402,0.0402,0.0402,0.0403,0,0.0836,0.0861,0.0999,0.1097,0.1141,0.126,0.1402,0.1514,0.1567,0.1744,0.1778,0.173,0.1612,0.1328,0.108,0.0801,0.0427,0.0479,0.0455,0.0412,0.0006,-0.0126,-0.0322,-0.0426,0.0317,0.0316,0.0315,0,0.0909,0.0987,0.1139,0.1232,0.1289,0.1444,0.1555,0.1631,0.1756,0.1924,0.2031,0.1992,0.1989,0.1602,0.1125,0.0717,0.0444,0.0392,0.026,0.0005,-0.0171,-0.0276,-0.0357,0.0218,0.0217,0.0216,0.0215,0,0.1053,0.1103,0.1214,0.1397,0.1535,0.17,0.1862,0.1997,0.2114,0.2272,0.245,0.248,0.2123,0.1703,0.1132,0.0812,0.0202,0.0354,0.01,-0.0242,-0.0375,-0.05,0.0195,0.0204,0.0205,0.0206,0.0207,0.0207,0.1164,0.1267,0.1394,0.1569,0.1727,0.1924,0.208,0.2262,0.2496,0.2746,0.275,0.2823,0.218,0.1406,0.0977,0.0111,0.0133,-0.0177,-0.0306,-0.0381,-0.0517,0.016,0.0113,0.0114,0.0114,0.0115,0.0115,0,0.1278,0.1378,0.1547,0.1755,0.1928,0.1986,0.2257,0.2422,0.2708,0.2934,0.3093,0.2754,0.2014,0.1221,0.0071,-0.0467,-0.0672,-0.0763,-0.0942,-0.0986,-0.0376,-0.0418,-0.0592,-0.0592,-0.0592,-0.0592,-0.0591,-0.0591,0.1349,0.1503,0.1574,0.1863,0.2009,0.2253,0.2406,0.2678,0.2879,0.311,0.3109,0.3077,0.2339,0.045,-0.0814,-0.108,-0.1448,-0.1543,-0.1681,-0.1311,-0.1267,-0.1225,-0.1298,-0.1655,-0.1656,-0.2246,-0.2253,-0.2258]}],[{"header":{"parameterUnit":"m.s-1","parameterCategory":2,"la1":30.2991,"la2":30.254,"lo1":-89.0895,"lo2":-89.0444,"dy":0.0017,"dx":0.0017,"nx":28,"ny":28,"refTime":"2025-06-21T21:00:00:Z","depth":"2","parameterNumber":2,"parameterNumberName":"U-component_of_CURRENTS"},"data":[0,0,0,0,0,0,0,0,0,0,0,0,0,0,0,0,0,0,0,0,0,0,0,0,0,0,0,0,0,0,0,0,0,0,0,0,0,0,0,0,0,0,0,0,0,0,0,0,0,0,0,0,0,0,0,0,0,0,0.3181,0.3182,0,0.3224,0.3225,0.3225,0.3264,0.3264,0.3264,0.3265,0.3307,0.3308,0.3309,0,0,0,0,0,0,0,0,0,0,0,0,0,0.3103,0.3104,0.3181,0.3182,0.3182,0.3224,0.3225,0.3225,0.3264,0.3264,0.3265,0.3265,0.3307,0.3308,0.3309,0,0,0,0,0,0,0,0,0,0,0,0,0,0.3141,0.3105,0.3181,0.3206,0.3209,0.3224,0.3225,0.3226,0.3263,0.3264,0.3265,0.3265,0.3307,0.3308,0.3309,0.3303,0,0,0.3312,0.3313,0,0,0,0,0,0,0,0,0.3139,0.3144,0.3202,0.3204,0.3207,0.3239,0.3213,0.3251,0.3263,0.3243,0.3265,0.3266,0.3284,0.3287,0.3294,0.3305,0.3307,0.3312,0.3313,0.3313,0.3314,0,0,0,0,0,0,0,0.3136,0.3142,0.3198,0.3202,0.3206,0.3205,0.3212,0.322,0.3259,0.3245,0.3248,0.3252,0.3285,0.3293,0.3295,0.3307,0.3312,0.3313,0.3314,0.3314,0.3409,0.341,0,0,0,0,0,0,0.3131,0.314,0.3197,0.32,0.3174,0.3206,0.3213,0.3228,0.3259,0.3265,0.3251,0.3253,0.329,0.3294,0.3297,0.3368,0.3313,0.3314,0.3315,0.3407,0.3409,0.3411,0,0,0,0,0,0,0.313,0.3136,0.3195,0.317,0.3177,0.3207,0.3223,0.3229,0.3261,0.3264,0.327,0.3281,0.3291,0.3295,0.3336,0.3366,0.3315,0.3316,0.3405,0.3408,0.341,0.346,0,0,0,0,0,0,0.3127,0.3136,0.3154,0.317,0.3178,0.3231,0.3223,0.3229,0.3261,0.3265,0.3291,0.3294,0.3292,0.3335,0.3337,0.3367,0.3317,0.3402,0.3406,0.3409,0.3456,0.3465,0.3472,0,0,0,0,0,0.3125,0.3146,0.3155,0.3162,0.32,0.3232,0.3238,0.326,0.3262,0.3289,0.3307,0.3294,0.3359,0.3337,0.334,0.337,0.3401,0.3405,0.3409,0.3453,0.3463,0.3471,0,0,0,0,0,0,0.3118,0.3152,0.3162,0.3193,0.3222,0.3239,0.3264,0.3273,0.3307,0.3313,0.3315,0.332,0.3372,0.3365,0.3341,0.341,0.3379,0.3384,0.3412,0.3421,0.3428,0.346,0.3318,0,0,0,0,0,0.3125,0.3148,0.3182,0.3203,0.3227,0.3249,0.3267,0.3281,0.3305,0.3322,0.3337,0.3357,0.3386,0.3399,0.3422,0.3452,0.3482,0.3476,0.3483,0.349,0.3519,0.3599,0.3617,0.3425,0.3425,0.3425,0,0,0.3126,0.3144,0.3159,0.3203,0.3228,0.3266,0.3263,0.3299,0.3327,0.3319,0.3369,0.3388,0.3403,0.3447,0.3468,0.3446,0.3557,0.3495,0.35,0.3527,0.3606,0.3625,0.3641,0.3428,0.3427,0.3427,0,0,0.3134,0.3164,0.3194,0.3223,0.3265,0.3285,0.3303,0.334,0.3365,0.3406,0.3416,0.3462,0.3487,0.3516,0.3529,0.3592,0.3601,0.3593,0.3649,0.3726,0.3743,0.3758,0.3806,0.3825,0.3588,0.3589,0.3589,0,0.3133,0.3171,0.3206,0.3241,0.3266,0.33,0.3339,0.3369,0.341,0.3446,0.3433,0.3522,0.3525,0.3599,0.3621,0.3611,0.365,0.3607,0.3737,0.3752,0.3767,0.3813,0.3834,0.3591,0.3591,0.3591,0.3591,0,0.3163,0.3199,0.322,0.3276,0.3316,0.3348,0.3399,0.3445,0.3472,0.3508,0.3594,0.361,0.3674,0.3671,0.3664,0.377,0.3762,0.3741,0.3712,0.379,0.3833,0.3853,0.3596,0.3595,0.3594,0.3593,0,0,0.3137,0.3224,0.3231,0.327,0.3333,0.3372,0.3435,0.3515,0.3582,0.3623,0.3713,0.3757,0.3793,0.3813,0.3814,0.3866,0.3984,0.3852,0.3855,0.3899,0.4151,0.4064,0.4077,0.3991,0.3996,0.3999,0.4133,0,0.3147,0.3213,0.3256,0.3327,0.3373,0.343,0.3494,0.3572,0.3637,0.3736,0.3785,0.3872,0.3838,0.3882,0.3936,0.3997,0.4044,0.3949,0.4072,0.4076,0.3988,0.41,0.378,0.3867,0.4153,0.4157,0.4159,0,0.316,0.3202,0.327,0.3371,0.3402,0.3456,0.3583,0.3651,0.3791,0.3843,0.3944,0.3995,0.4112,0.4051,0.4204,0.4152,0.4165,0.4181,0.4186,0.4109,0.4028,0.3841,0.3894,0.4193,0.4191,0.4188,0.4186,0,0.3127,0.3215,0.327,0.3297,0.3417,0.3475,0.3559,0.3693,0.3779,0.394,0.402,0.4151,0.4246,0.4304,0.4346,0.4302,0.4489,0.4426,0.435,0.4342,0.4098,0.4062,0.4518,0.4518,0.4518,0.4517,0.4517,0,0.3115,0.316,0.3266,0.33,0.3393,0.3487,0.3613,0.3712,0.387,0.3978,0.4094,0.4192,0.4321,0.4427,0.4425,0.4475,0.4563,0.4402,0.4392,0.4102,0.4067,0.4367,0.4347,0.4522,0.4521,0.452,0.4519,0,0.307,0.3135,0.3203,0.333,0.3383,0.3458,0.3644,0.372,0.3889,0.4034,0.4095,0.4298,0.443,0.4508,0.4625,0.4585,0.4619,0.4589,0.4232,0.4178,0.4396,0.4378,0.4552,0.4551,0.455,0.4548,0.4548,0,0.3055,0.3087,0.3212,0.325,0.3311,0.3438,0.3512,0.3706,0.3783,0.4064,0.4112,0.433,0.4402,0.4571,0.4553,0.4565,0.4605,0.4264,0.4113,0.4438,0.4411,0.4395,0.4379,0.3801,0.3794,0.3789,0.3784,0,0.3019,0.3059,0.3107,0.3195,0.3272,0.3338,0.3467,0.3535,0.3744,0.3863,0.4022,0.4129,0.4323,0.4227,0.4286,0.4237,0.4245,0.415,0.4622,0.3839,0.374,0.371,0.3717,0.3734,0.3739,0.3742,0.3745,0.3747,0.298,0.2973,0.304,0.3102,0.3197,0.3207,0.321,0.332,0.342,0.3546,0.377,0.3823,0.394,0.3869,0.3777,0.3735,0.3996,0.3819,0.3833,0.3853,0.3739,0.3643,0.3597,0.3601,0.3604,0.3607,0.361,0,0.2901,0.2874,0.294,0.2978,0.2991,0.3101,0.3143,0.3086,0.3104,0.3272,0.3365,0.317,0.3162,0.3274,0.3141,0.317,0.31,0.3044,0.2912,0.2968,0.3016,0.2853,0.2479,0.2475,0.2471,0.2467,0,0,0.2849,0.2827,0.2835,0.277,0.28,0.2731,0.2707,0.2672,0.2737,0.2702,0.2736,0.3001,0.3191,0.2769,0.2746,0.2587,0.2744,0.2499,0.342,0.3321,0.3363,0.3496,0.3314,0,0,0,0,0]},{"header":{"parameterUnit":"m.s-1","parameterCategory":2,"la1":30.2991,"la2":30.254,"lo1":-89.0895,"lo2":-89.0444,"dy":0.0017,"dx":0.0017,"nx":28,"ny":28,"refTime":"2025-06-21T21:00:00:Z","depth":"2","parameterNumber":3,"parameterNumberName":"V-component_of_CURRENTS"},"data":[0,0,0,0,0,0,0,0,0,0,0,0,0,0,0,0,0,0,0,0,0,0,0,0,0,0,0,0,0,0,0,0,0,0,0,0,0,0,0,0,0,0,0,0,0,0,0,0,0,0,0,0,0,0,0,0,0,0,0.0019,0.0019,0,-0.003,-0.0031,-0.0032,-0.0076,-0.0077,-0.0077,-0.0078,-0.0161,-0.0162,-0.0164,0,0,0,0,0,0,0,0,0,0,0,0,0,0.0029,0.0029,0.0019,0.0019,0.0019,-0.003,-0.0031,-0.0032,-0.0076,-0.0077,-0.0077,-0.0078,-0.016,-0.0162,-0.0164,0,0,0,0,0,0,0,0,0,0,0,0,0,0.0005,0.0029,0.002,-0.0008,-0.0011,-0.003,-0.0031,-0.0032,-0.0076,-0.0077,-0.0077,-0.0078,-0.0159,-0.0162,-0.0165,-0.0171,0,0,-0.0173,-0.0174,0,0,0,0,0,0,0,0,0.0007,0.0005,-0.0004,-0.0006,-0.001,-0.0046,-0.0058,-0.0079,-0.0076,-0.0053,-0.0078,-0.0078,-0.0124,-0.013,-0.014,-0.0175,-0.0178,-0.0174,-0.0175,-0.0176,-0.0177,0,0,0,0,0,0,0,0.0009,0.0006,-0.0002,-0.0004,-0.0008,-0.0034,-0.0038,-0.0062,-0.0087,-0.0055,-0.0058,-0.0061,-0.0126,-0.0137,-0.0142,-0.0179,-0.0173,-0.0176,-0.0178,-0.0179,-0.0225,-0.0224,0,0,0,0,0,0,0.0021,0.0008,-0.0,-0.0003,-0.0001,-0.0033,-0.0038,-0.0035,-0.0086,-0.0093,-0.006,-0.0063,-0.0132,-0.0139,-0.0145,-0.0142,-0.0176,-0.0179,-0.0181,-0.0225,-0.0225,-0.0224,0,0,0,0,0,0,0.0022,0.0021,0.0002,0.0002,-0.0002,-0.0032,-0.003,-0.0036,-0.0045,-0.0089,-0.0098,-0.0062,-0.0133,-0.0141,-0.0159,-0.0146,-0.018,-0.0183,-0.0226,-0.0225,-0.0224,-0.0144,0,0,0,0,0,0,0.0023,0.0022,0.0026,0.0004,-0.0001,0.0001,-0.0029,-0.0036,-0.0045,-0.0048,-0.0093,-0.0102,-0.0134,-0.0155,-0.0162,-0.015,-0.0185,-0.0226,-0.0225,-0.0225,-0.0147,-0.0141,-0.0135,0,0,0,0,0,0.0023,0.0041,0.0026,0.0025,0.0006,0.0002,-0.0003,-0.0029,-0.0044,-0.004,-0.0071,-0.01,-0.0155,-0.0156,-0.0165,-0.0154,-0.0227,-0.0226,-0.0225,-0.015,-0.0142,-0.0135,0,0,0,0,0,0,0.0051,0.0038,0.0021,0.0034,0.0021,-0.0005,-0.0003,-0.0021,-0.0043,-0.0047,-0.0093,-0.0103,-0.0117,-0.0145,-0.0146,-0.0166,-0.0196,-0.0197,-0.0136,-0.0129,-0.0123,-0.0099,-0.0187,0,0,0,0,0,0.0059,0.0066,0.0046,0.0056,0.0052,0.0024,0.0018,0.0003,-0.0018,-0.0029,-0.0061,-0.0094,-0.0119,-0.0131,-0.0161,-0.0167,-0.0203,-0.0167,-0.0161,-0.0155,-0.0142,-0.0185,-0.0181,-0.0221,-0.0221,-0.0221,0,0,0.0072,0.0066,0.007,0.0062,0.0048,0.0058,0.0019,0.002,0.0028,-0.0034,-0.0035,-0.0075,-0.0117,-0.0127,-0.0135,-0.0148,-0.0164,-0.0154,-0.0149,-0.0138,-0.0184,-0.018,-0.0176,-0.022,-0.022,-0.022,0,0,0.0113,0.0098,0.0119,0.0113,0.0101,0.0086,0.0091,0.0068,0.0057,0.0049,0.0007,-0.0021,-0.006,-0.0084,-0.0102,-0.0079,-0.0133,-0.0093,-0.0038,-0.008,-0.0077,-0.0075,-0.0119,-0.0122,-0.0086,-0.0086,-0.0086,0,0.013,0.0153,0.0125,0.0144,0.015,0.0106,0.0134,0.0118,0.0092,0.0092,0.0059,0.0004,-0.0038,-0.0042,-0.0038,-0.0064,-0.0099,-0.006,-0.0071,-0.0069,-0.0069,-0.0115,-0.0119,-0.0082,-0.0082,-0.0083,-0.0083,0,0.0185,0.0202,0.0216,0.0226,0.0227,0.0244,0.0222,0.0217,0.0192,0.0174,0.0155,0.0092,0.0064,0.004,0.0006,-0.0001,-0.0032,-0.0061,-0.0086,-0.0059,-0.0111,-0.0116,-0.0076,-0.0078,-0.0079,-0.008,0,0,0.0233,0.0253,0.0258,0.0284,0.0274,0.029,0.0299,0.0305,0.0326,0.0272,0.0291,0.0224,0.0185,0.0161,0.0109,0.0067,0.0033,0.0014,0.0009,-0.0023,-0.0063,-0.0102,-0.0112,0.0001,0.0001,0.0001,-0.0103,0,0.0286,0.0351,0.034,0.0401,0.0434,0.0402,0.0422,0.0417,0.0396,0.04,0.0326,0.0318,0.0234,0.0223,0.0168,0.0077,0.0024,0.0063,-0.009,-0.0094,-0.0126,-0.0117,-0.0078,-0.0168,-0.0108,-0.0109,-0.011,0,0.0344,0.0383,0.0454,0.0504,0.0516,0.0541,0.0573,0.0591,0.0572,0.0554,0.0516,0.0455,0.0398,0.0316,0.0166,0.0195,0.0075,-0.0014,-0.002,-0.0085,-0.0142,-0.0186,-0.0181,-0.0119,-0.0118,-0.0118,-0.0117,0,0.0404,0.0465,0.0531,0.0545,0.0587,0.0614,0.064,0.0639,0.068,0.0659,0.0676,0.0578,0.0552,0.0389,0.0198,0.0184,0.0021,-0.0022,-0.0177,-0.0182,-0.0192,-0.0197,-0.0142,-0.0142,-0.0142,-0.0142,-0.0141,0,0.0467,0.0522,0.0568,0.0606,0.0697,0.0696,0.0784,0.0786,0.0814,0.0881,0.0771,0.079,0.0569,0.0445,0.0244,0.0026,0.0051,-0.0163,-0.0208,-0.0164,-0.0165,-0.0156,-0.0156,-0.0145,-0.0145,-0.0144,-0.0143,0,0.0518,0.0546,0.0629,0.0694,0.0728,0.0793,0.0895,0.0954,0.0966,0.1047,0.1049,0.0962,0.0797,0.0549,0.0294,0.0108,-0.0114,-0.0208,-0.0144,-0.0179,-0.0304,-0.0298,-0.0381,-0.0383,-0.0385,-0.0387,-0.0388,0,0.0549,0.0596,0.07,0.0759,0.0793,0.0895,0.0968,0.1024,0.11,0.1157,0.1205,0.1081,0.1003,0.0611,0.0256,-0.0103,-0.0146,-0.0298,-0.0326,-0.0291,-0.0327,-0.0319,-0.0311,-0.0312,-0.0313,-0.0313,-0.0314,0,0.0607,0.0638,0.0707,0.0832,0.0923,0.1037,0.1152,0.1242,0.1317,0.1382,0.1439,0.1384,0.1027,0.0684,0.0197,-0.0044,-0.0238,-0.032,-0.0293,-0.0256,-0.0235,-0.0267,-0.026,-0.0318,-0.0318,-0.0317,-0.0317,-0.0317,0.0644,0.0697,0.0787,0.0913,0.1024,0.1158,0.1268,0.1393,0.1533,0.1643,0.1592,0.1539,0.1155,0.0543,0.0127,-0.029,-0.0283,-0.042,-0.0415,-0.0411,-0.0382,-0.0365,-0.0468,-0.0468,-0.0469,-0.0469,-0.0469,0,0.068,0.0748,0.0863,0.1009,0.1137,0.1192,0.1378,0.1487,0.1663,0.1754,0.1788,0.143,0.1046,0.0617,-0.0003,-0.039,-0.0407,-0.0503,-0.0431,-0.0425,-0.042,-0.0389,-0.0478,-0.0479,-0.048,-0.0481,0,0,0.0696,0.08,0.0869,0.1084,0.1193,0.1364,0.1475,0.1633,0.1751,0.1828,0.1825,0.1728,0.1213,0.0764,0.0232,-0.0111,-0.0175,-0.0182,-0.0136,0.0017,0.0028,-0.0337,-0.0279,0,0,0,0,0]}],[{"header":{"parameterUnit":"m.s-1","parameterCategory":2,"la1":30.2991,"la2":30.254,"lo1":-89.0895,"lo2":-89.0444,"dy":0.0017,"dx":0.0017,"nx":28,"ny":28,"refTime":"2025-06-21T21:00:00:Z","depth":"4","parameterNumber":2,"parameterNumberName":"U-component_of_CURRENTS"},"data":[0,0,0,0,0,0,0,0,0,0,0,0,0,0,0,0,0,0,0,0,0,0,0,0,0,0,0,0,0,0,0,0,0,0,0,0,0,0,0,0,0,0,0,0,0,0,0,0,0,0,0,0,0,0,0,0,0,0,0.1962,0.1963,0,0.2059,0.206,0.2061,0.2133,0.2134,0.2135,0.2136,0.2226,0.2228,0.2229,0,0,0,0,0,0,0,0,0,0,0,0,0,0.185,0.1851,0.1962,0.1963,0.1965,0.2059,0.206,0.2061,0.2133,0.2134,0.2135,0.2136,0.2226,0.2227,0.2229,0,0,0,0,0,0,0,0,0,0,0,0,0,0.1916,0.1852,0.1962,0.2014,0.2019,0.2058,0.206,0.2061,0.2133,0.2134,0.2136,0.2137,0.2225,0.2227,0.223,0.222,0,0,0.2237,0.2238,0,0,0,0,0,0,0,0,0.1912,0.192,0.2005,0.201,0.2017,0.2087,0.2054,0.2115,0.2133,0.2088,0.2136,0.2137,0.2179,0.2186,0.2198,0.2224,0.2228,0.2237,0.2239,0.224,0.2241,0,0,0,0,0,0,0,0.1907,0.1916,0.1998,0.2006,0.2013,0.2036,0.2046,0.2065,0.2124,0.2092,0.2098,0.2111,0.2183,0.2196,0.2201,0.2229,0.2237,0.2239,0.2241,0.2242,0.2391,0.2393,0,0,0,0,0,0,0.1898,0.1912,0.1995,0.2002,0.1969,0.2037,0.2048,0.2062,0.2124,0.2135,0.211,0.2114,0.2191,0.2198,0.2204,0.2319,0.224,0.2242,0.2244,0.2389,0.2392,0.2394,0,0,0,0,0,0,0.1895,0.1904,0.1992,0.196,0.1973,0.2038,0.2052,0.2063,0.2118,0.2138,0.2149,0.2159,0.2192,0.2201,0.2268,0.2319,0.2243,0.2245,0.2386,0.239,0.2393,0.247,0,0,0,0,0,0,0.1891,0.1902,0.1926,0.196,0.1975,0.204,0.2051,0.2064,0.2123,0.213,0.2182,0.219,0.2194,0.2265,0.2271,0.2321,0.2247,0.2382,0.2387,0.2392,0.2464,0.2476,0.2486,0,0,0,0,0,0.1887,0.19,0.1926,0.1938,0.1999,0.2042,0.2052,0.21,0.2124,0.2153,0.2199,0.2191,0.2299,0.2269,0.2275,0.2327,0.238,0.2386,0.2391,0.2459,0.2474,0.2486,0,0,0,0,0,0,0.1861,0.1911,0.194,0.1969,0.2018,0.2056,0.2092,0.2121,0.218,0.2203,0.2218,0.2229,0.231,0.2307,0.2273,0.2386,0.234,0.2347,0.2389,0.2403,0.2413,0.2418,0.2249,0,0,0,0,0,0.1867,0.1897,0.1946,0.1976,0.2006,0.2058,0.2089,0.2126,0.2172,0.2202,0.224,0.2285,0.233,0.2358,0.2394,0.2447,0.2454,0.2487,0.2498,0.2507,0.2517,0.2579,0.2596,0.2413,0.2413,0.2413,0,0,0.1869,0.1898,0.1919,0.1975,0.202,0.2067,0.2081,0.2143,0.2192,0.22,0.2289,0.2328,0.2355,0.2426,0.2461,0.2434,0.2563,0.2514,0.2522,0.2527,0.2587,0.2605,0.262,0.2417,0.2416,0.2415,0,0,0.1874,0.1917,0.1947,0.1993,0.2067,0.2098,0.2125,0.2194,0.2242,0.2317,0.2348,0.242,0.2477,0.2517,0.2539,0.2628,0.2622,0.2646,0.2701,0.2762,0.2777,0.279,0.2818,0.2833,0.2646,0.2647,0.2647,0,0.1884,0.1921,0.1964,0.2008,0.2053,0.2116,0.2166,0.2218,0.2304,0.2352,0.2359,0.2496,0.2519,0.2614,0.2651,0.2653,0.2677,0.2646,0.2775,0.2789,0.2801,0.2826,0.2842,0.2651,0.265,0.265,0.265,0,0.1906,0.1957,0.1981,0.2058,0.2109,0.2164,0.2239,0.231,0.2372,0.2425,0.2548,0.2596,0.2677,0.27,0.2702,0.2815,0.28,0.2784,0.2738,0.2824,0.2845,0.286,0.2657,0.2656,0.2654,0.2653,0,0,0.188,0.1978,0.1995,0.2043,0.2145,0.2185,0.2281,0.2379,0.2456,0.2548,0.2647,0.2741,0.2789,0.2818,0.2848,0.29,0.3005,0.2887,0.2889,0.2907,0.3131,0.2932,0.2929,0.3019,0.3023,0.3025,0.3107,0,0.1896,0.1971,0.2021,0.2112,0.2162,0.2253,0.2333,0.2435,0.2524,0.2635,0.272,0.2825,0.2827,0.2888,0.2947,0.2998,0.3051,0.2983,0.3051,0.3053,0.2859,0.2942,0.3036,0.3118,0.3122,0.3124,0.3126,0,0.1903,0.1953,0.2037,0.2148,0.2183,0.2249,0.2397,0.2481,0.2639,0.2717,0.2842,0.2909,0.3033,0.301,0.3145,0.3108,0.3134,0.3155,0.3158,0.2955,0.2882,0.3017,0.3153,0.3151,0.3149,0.3147,0.3146,0,0.185,0.1965,0.2029,0.2071,0.2206,0.2275,0.236,0.2515,0.2604,0.2788,0.2874,0.3016,0.311,0.3176,0.3232,0.3208,0.335,0.3312,0.3157,0.3142,0.3261,0.3246,0.3405,0.3405,0.3404,0.3404,0.3404,0,0.1824,0.1884,0.2019,0.2053,0.2144,0.2262,0.2384,0.2492,0.2665,0.2765,0.2923,0.3015,0.3164,0.3254,0.3275,0.3259,0.3391,0.3179,0.3158,0.329,0.3278,0.3271,0.3255,0.3407,0.3407,0.3406,0.3406,0,0.1747,0.184,0.1915,0.2063,0.2118,0.2187,0.2374,0.245,0.2645,0.2784,0.2851,0.3055,0.3164,0.3268,0.3378,0.3297,0.3307,0.3269,0.3408,0.3391,0.3045,0.3032,0.3091,0.3085,0.3079,0.3075,0.3071,0,0.1706,0.1741,0.1893,0.193,0.1999,0.2129,0.2204,0.2414,0.2495,0.2772,0.2808,0.3006,0.3111,0.311,0.3229,0.3256,0.3225,0.3205,0.3117,0.3044,0.3019,0.3013,0.3008,0.3063,0.3062,0.306,0.3059,0,0.161,0.168,0.1732,0.1819,0.1898,0.1984,0.2115,0.2168,0.2404,0.2602,0.2709,0.2789,0.2908,0.2984,0.3037,0.3048,0.3198,0.3149,0.3159,0.3076,0.3011,0.2989,0.299,0.3041,0.3043,0.3045,0.3046,0,0.1526,0.153,0.1608,0.1675,0.1759,0.1799,0.1903,0.2008,0.2131,0.2436,0.2461,0.2677,0.2869,0.2878,0.2921,0.2923,0.2875,0.2775,0.2804,0.2825,0.2701,0.2577,0.2466,0,0,0,0,0,0.1423,0.141,0.1455,0.1507,0.1587,0.1653,0.1813,0.1929,0.2167,0.2172,0.2319,0.2417,0.2516,0.263,0.2579,0.2795,0.2875,0.2722,0.2771,0.294,0.2961,0.2839,0,0,0,0,0,0,0.1335,0.1364,0.1394,0.1361,0.1375,0.1454,0.1553,0.1721,0.175,0.2,0.2066,0.2259,0.2386,0.2511,0.2526,0.2559,0.2539,0.286,0.2854,0.2928,0.2947,0.2964,0.2846,0,0,0,0,0]},{"header":{"parameterUnit":"m.s-1","parameterCategory":2,"la1":30.2991,"la2":30.254,"lo1":-89.0895,"lo2":-89.0444,"dy":0.0017,"dx":0.0017,"nx":28,"ny":28,"refTime":"2025-06-21T21:00:00:Z","depth":"4","parameterNumber":3,"parameterNumberName":"V-component_of_CURRENTS"},"data":[0,0,0,0,0,0,0,0,0,0,0,0,0,0,0,0,0,0,0,0,0,0,0,0,0,0,0,0,0,0,0,0,0,0,0,0,0,0,0,0,0,0,0,0,0,0,0,0,0,0,0,0,0,0,0,0,0,0,0.0049,0.0048,0,0.0014,0.0014,0.0013,-0.0018,-0.0018,-0.0019,-0.0019,-0.0082,-0.0083,-0.0084,0,0,0,0,0,0,0,0,0,0,0,0,0,0.0049,0.0049,0.0049,0.0048,0.0048,0.0014,0.0014,0.0013,-0.0018,-0.0018,-0.0019,-0.0019,-0.0081,-0.0083,-0.0084,0,0,0,0,0,0,0,0,0,0,0,0,0,0.0034,0.0049,0.0049,0.0029,0.0027,0.0014,0.0014,0.0013,-0.0018,-0.0018,-0.0019,-0.0019,-0.0081,-0.0083,-0.0085,-0.009,0,0,-0.0091,-0.0092,0,0,0,0,0,0,0,0,0.0035,0.0034,0.0032,0.0031,0.0028,0.0003,-0.0009,-0.0023,-0.0018,-0.0002,-0.0019,-0.0019,-0.0055,-0.0059,-0.0066,-0.0093,-0.0096,-0.0091,-0.0093,-0.0094,-0.0094,0,0,0,0,0,0,0,0.0036,0.0035,0.0034,0.0032,0.003,0.0009,0.0007,-0.0012,-0.0027,-0.0003,-0.0006,-0.0007,-0.0056,-0.0064,-0.0068,-0.0096,-0.0091,-0.0093,-0.0095,-0.0095,-0.0137,-0.0137,0,0,0,0,0,0,0.0045,0.0036,0.0035,0.0033,0.0032,0.001,0.0007,0.0011,-0.0027,-0.0032,-0.0007,-0.0009,-0.006,-0.0065,-0.007,-0.0073,-0.0094,-0.0096,-0.0097,-0.0137,-0.0137,-0.0137,0,0,0,0,0,0,0.0045,0.0046,0.0036,0.0034,0.0032,0.001,0.0014,0.001,0.0004,-0.0029,-0.0035,-0.0008,-0.0061,-0.0067,-0.0081,-0.0076,-0.0097,-0.0098,-0.0138,-0.0137,-0.0137,-0.0082,0,0,0,0,0,0,0.0046,0.0046,0.005,0.0035,0.0032,0.0035,0.0015,0.001,0.0004,0.0001,-0.0032,-0.0038,-0.0061,-0.0078,-0.0083,-0.0079,-0.01,-0.0138,-0.0137,-0.0137,-0.0084,-0.0079,-0.0076,0,0,0,0,0,0.0046,0.0061,0.0051,0.005,0.004,0.0036,0.0032,0.0014,0.0005,0.0007,-0.0016,-0.0037,-0.008,-0.0079,-0.0086,-0.0082,-0.0138,-0.0138,-0.0137,-0.0085,-0.008,-0.0076,0,0,0,0,0,0,0.0065,0.0059,0.0047,0.0059,0.0049,0.0031,0.0033,0.002,0.0004,0.0002,-0.0032,-0.004,-0.0052,-0.0074,-0.0072,-0.0094,-0.0114,-0.0115,-0.0072,-0.0068,-0.0064,-0.005,-0.0102,0,0,0,0,0,0.0071,0.0079,0.0066,0.0075,0.0072,0.0052,0.0047,0.0037,0.0022,0.0014,-0.001,-0.0035,-0.0055,-0.0066,-0.0088,-0.0097,-0.0133,-0.01,-0.0096,-0.0093,-0.0086,-0.0138,-0.0138,-0.0136,-0.0136,-0.0136,0,0,0.008,0.0078,0.0083,0.0079,0.0069,0.0075,0.0048,0.0049,0.0054,0.001,0.0008,-0.0022,-0.0055,-0.0065,-0.0073,-0.0083,-0.0114,-0.0092,-0.0089,-0.0085,-0.0137,-0.0138,-0.0138,-0.0136,-0.0136,-0.0136,0,0,0.0109,0.0102,0.0118,0.0114,0.0106,0.0096,0.0099,0.0083,0.0074,0.0067,0.0036,0.0012,-0.0016,-0.004,-0.0055,-0.0044,-0.0092,-0.0053,-0.0021,-0.0071,-0.0071,-0.0072,-0.0123,-0.0129,-0.005,-0.005,-0.005,0,0.012,0.0138,0.0122,0.0135,0.0139,0.011,0.0128,0.0116,0.0097,0.0092,0.0075,0.0026,-0.0004,-0.002,-0.0017,-0.0034,-0.0072,-0.0034,-0.0065,-0.0067,-0.0069,-0.0121,-0.0128,-0.0047,-0.0048,-0.0048,-0.0048,0,0.0157,0.0171,0.0181,0.0189,0.0191,0.0202,0.0187,0.0182,0.0165,0.0148,0.0126,0.0081,0.0053,0.0036,0.0014,-0.0011,-0.0036,-0.0055,-0.0075,-0.0066,-0.0121,-0.0129,-0.0044,-0.0044,-0.0045,-0.0046,0,0,0.0184,0.0204,0.0208,0.0224,0.0222,0.0231,0.0238,0.0235,0.0243,0.0205,0.0202,0.0157,0.0125,0.0105,0.0066,0.0022,-0.0028,-0.0016,-0.002,-0.0062,-0.0142,-0.0142,-0.0151,-0.0054,-0.0055,-0.0055,-0.0176,0,0.0217,0.026,0.0259,0.0299,0.0319,0.0302,0.0315,0.0307,0.0288,0.0275,0.0217,0.02,0.0154,0.0141,0.0089,0.0005,-0.0047,0.0007,-0.0148,-0.0153,-0.015,-0.016,-0.0059,-0.0183,-0.0185,-0.0187,-0.0188,0,0.0249,0.0276,0.0324,0.036,0.0367,0.0386,0.0401,0.041,0.0381,0.0364,0.0326,0.0279,0.0217,0.0173,0.0028,0.0064,-0.0031,-0.0105,-0.0112,-0.0134,-0.0168,-0.0195,-0.0204,-0.0202,-0.0201,-0.02,-0.0199,0,0.0276,0.0322,0.0365,0.0376,0.0408,0.0427,0.0443,0.0435,0.0457,0.042,0.0422,0.0332,0.0294,0.0165,0.0018,0.002,-0.0153,-0.0172,-0.0265,-0.0267,-0.0256,-0.0254,-0.0281,-0.0281,-0.0281,-0.028,-0.028,0,0.0307,0.0343,0.0384,0.0407,0.0468,0.047,0.0524,0.0521,0.0526,0.0555,0.0474,0.0465,0.029,0.0177,0.0031,-0.0141,-0.0148,-0.0262,-0.0297,-0.023,-0.0224,-0.0263,-0.0259,-0.0285,-0.0284,-0.0283,-0.0282,0,0.0326,0.035,0.0406,0.0457,0.0482,0.0524,0.0595,0.0631,0.0624,0.0654,0.0649,0.0559,0.0409,0.0223,0.0006,-0.0111,-0.0284,-0.0346,-0.026,-0.0289,-0.0371,-0.0363,-0.0461,-0.0462,-0.0463,-0.0463,-0.0464,0,0.0338,0.0368,0.0449,0.0497,0.0525,0.0594,0.0649,0.0676,0.0718,0.0714,0.073,0.0608,0.0521,0.0224,0.0013,-0.0275,-0.0313,-0.0407,-0.039,-0.0365,-0.039,-0.038,-0.0371,-0.0465,-0.0465,-0.0466,-0.0466,0,0.0363,0.0391,0.0445,0.0546,0.0616,0.07,0.0774,0.0815,0.0843,0.0838,0.0807,0.0658,0.0484,0.0243,0.0014,-0.0191,-0.0348,-0.0417,-0.0416,-0.0401,-0.0371,-0.0393,-0.0383,-0.0469,-0.0468,-0.0468,-0.0468,0,0.0386,0.0427,0.0504,0.0597,0.0688,0.0777,0.0817,0.0868,0.0908,0.0898,0.0883,0.0697,0.0586,0.0285,0.0076,-0.0129,-0.0181,-0.0244,-0.0253,-0.0253,-0.0158,-0.0087,-0.0128,0,0,0,0,0,0.0408,0.0464,0.0552,0.0653,0.0744,0.0802,0.0892,0.0921,0.0945,0.094,0.0918,0.0759,0.0462,0.0334,0.013,0.0039,-0.0235,-0.0209,-0.0315,-0.0484,-0.0481,-0.0405,0,0,0,0,0,0,0.0423,0.0505,0.0555,0.0685,0.0759,0.0866,0.0926,0.0948,0.0945,0.0936,0.0786,0.0706,0.0417,0.058,0.0126,0.0062,-0.0033,-0.0351,-0.0356,-0.0486,-0.0483,-0.0481,-0.0401,0,0,0,0,0]}]]